• In Switzerland
  • List of Countries
  • For 7 days
  • Water Temperature
  • Satellite Maps
  • Weather Map
  • Weather Widgets
  • user-avatar
    Login

    Hourly Weather Estelí

    Today, 17 January, Wednesday

    Time Temperature Precipitation Wind Pressure Humidity
    00:00 +18°C° 0 mm 2 mps 688 mmHg 78%
    01:00 +18°C° 0 mm 2 mps 688 mmHg 78%
    02:00 +18°C° 0 mm 2 mps 688 mmHg 79%
    03:00 +18°C° 0 mm 2 mps 688 mmHg 79%
    04:00 +18°C° 0 mm 2 mps 688 mmHg 79%
    05:00 +17°C° 0 mm 2 mps 688 mmHg 78%
    06:00 +17°C° 0 mm 3 mps 688 mmHg 77%
    07:00 +19°C° 0 mm 3 mps 688 mmHg 70%
    08:00 +21°C° 0 mm 4 mps 689 mmHg 63%
    09:00 +23°C° 0 mm 5 mps 690 mmHg 56%
    10:00 +25°C° 0 mm 5 mps 690 mmHg 52%
    11:00 +27°C° 0 mm 6 mps 690 mmHg 48%
    12:00 +28°C° 0 mm 6 mps 690 mmHg 44%
    13:00 +28°C° 0 mm 6 mps 689 mmHg 43%
    14:00 +29°C° 0 mm 6 mps 689 mmHg 43%
    15:00 +29°C° 0 mm 6 mps 688 mmHg 43%
    16:00 +27°C° 0 mm 6 mps 688 mmHg 47%
    17:00 +25°C° 0 mm 5 mps 688 mmHg 51%
    18:00 +22°C° 0 mm 4 mps 688 mmHg 55%
    19:00 +21°C° 0 mm 3 mps 688 mmHg 58%
    20:00 +20°C° 0 mm 3 mps 688 mmHg 61%
    21:00 +19°C° 0 mm 3 mps 689 mmHg 63%
    22:00 +19°C° 0 mm 3 mps 689 mmHg 65%
    23:00 +18°C° 0 mm 2 mps 688 mmHg 66%

    Tomorrow, 18 January, Thursday

    Time Temperature Precipitation Wind Pressure Humidity
    00:00 +18°C° 0 mm 2 mps 688 mmHg 68%
    01:00 +18°C° 0 mm 3 mps 688 mmHg 69%
    02:00 +17°C° 0 mm 3 mps 688 mmHg 70%
    03:00 +17°C° 0 mm 3 mps 687 mmHg 71%
    04:00 +17°C° 0 mm 3 mps 688 mmHg 72%
    05:00 +17°C° 0 mm 3 mps 688 mmHg 72%
    06:00 +17°C° 0 mm 3 mps 688 mmHg 73%
    07:00 +19°C° 0 mm 3 mps 689 mmHg 68%
    08:00 +21°C° 0 mm 4 mps 689 mmHg 62%
    09:00 +23°C° 0 mm 5 mps 690 mmHg 57%
    10:00 +25°C° 0 mm 5 mps 690 mmHg 55%
    11:00 +25°C° 0 mm 5 mps 690 mmHg 54%
    12:00 +26°C° 0 mm 6 mps 690 mmHg 53%
    13:00 +24°C° 0 mm 6 mps 689 mmHg 55%
    14:00 +25°C° 0 mm 5 mps 688 mmHg 57%
    15:00 +23°C° 0 mm 5 mps 687 mmHg 58%
    16:00 +22°C° 0 mm 5 mps 687 mmHg 63%
    17:00 +21°C° 0 mm 4 mps 687 mmHg 68%
    18:00 +20°C° 0 mm 4 mps 687 mmHg 73%
    19:00 +19°C° 0 mm 4 mps 688 mmHg 74%
    20:00 +19°C° 0 mm 4 mps 688 mmHg 76%
    21:00 +19°C° 0 mm 4 mps 689 mmHg 77%
    22:00 +19°C° 0 mm 4 mps 689 mmHg 77%
    23:00 +19°C° 0 mm 4 mps 689 mmHg 77%

    Day after tomorrow, 19 January, Friday

    Time Temperature Precipitation Wind Pressure Humidity
    00:00 +19°C° 0 mm 4 mps 689 mmHg 77%
    01:00 +19°C° 0 mm 4 mps 688 mmHg 78%
    02:00 +18°C° 0 mm 3 mps 688 mmHg 79%
    03:00 +18°C° 0 mm 3 mps 687 mmHg 79%
    04:00 +18°C° 0 mm 3 mps 687 mmHg 80%
    05:00 +18°C° 0 mm 3 mps 688 mmHg 81%
    06:00 +18°C° 0 mm 3 mps 688 mmHg 82%
    07:00 +19°C° 0 mm 4 mps 688 mmHg 75%
    08:00 +21°C° 0 mm 5 mps 689 mmHg 68%
    09:00 +23°C° 0 mm 6 mps 690 mmHg 61%
    10:00 +24°C° 0 mm 6 mps 690 mmHg 58%
    11:00 +26°C° 0 mm 6 mps 689 mmHg 54%
    12:00 +27°C° 0 mm 6 mps 689 mmHg 51%
    13:00 +27°C° 0 mm 6 mps 688 mmHg 51%
    14:00 +27°C° 0 mm 6 mps 688 mmHg 52%
    15:00 +27°C° 0 mm 6 mps 687 mmHg 52%
    16:00 +25°C° 0 mm 5 mps 687 mmHg 58%
    17:00 +22°C° 0 mm 4 mps 687 mmHg 64%
    18:00 +21°C° 0 mm 3 mps 687 mmHg 70%
    19:00 +20°C° 0 mm 3 mps 687 mmHg 73%
    20:00 +20°C° 0 mm 3 mps 688 mmHg 75%
    21:00 +19°C° 0 mm 3 mps 688 mmHg 78%
    22:00 +19°C° 0 mm 3 mps 688 mmHg 79%
    23:00 +19°C° 0 mm 3 mps 688 mmHg 80%

    20 January, Saturday

    Time Temperature Precipitation Wind Pressure Humidity
    00:00 +19°C° 0 mm 3 mps 688 mmHg 82%
    01:00 +18°C° 0 mm 3 mps 687 mmHg 82%
    02:00 +18°C° 0 mm 2 mps 687 mmHg 82%
    03:00 +18°C° 0 mm 2 mps 686 mmHg 83%
    04:00 +18°C° 0 mm 2 mps 686 mmHg 83%
    05:00 +18°C° 0 mm 2 mps 687 mmHg 83%
    06:00 +18°C° 0 mm 2 mps 687 mmHg 84%
    07:00 +20°C° 0 mm 3 mps 688 mmHg 76%
    08:00 +21°C° 0 mm 4 mps 688 mmHg 68%
    09:00 +23°C° 0 mm 4 mps 689 mmHg 61%
    10:00 +26°C° 0 mm 5 mps 689 mmHg 56%
    11:00 +27°C° 0 mm 5 mps 689 mmHg 52%
    12:00 +28°C° 0 mm 5 mps 688 mmHg 48%
    13:00 +29°C° 0 mm 5 mps 687 mmHg 47%
    14:00 +29°C° 0 mm 5 mps 687 mmHg 46%
    15:00 +29°C° 0 mm 5 mps 686 mmHg 45%
    16:00 +27°C° 0 mm 4 mps 686 mmHg 52%
    17:00 +25°C° 0 mm 3 mps 686 mmHg 59%
    18:00 +24°C° 0 mm 2 mps 686 mmHg 66%
    19:00 +23°C° 0 mm 2 mps 686 mmHg 71%
    20:00 +21°C° 0 mm 2 mps 687 mmHg 77%
    21:00 +20°C° 0 mm 2 mps 687 mmHg 82%
    22:00 +20°C° 0 mm 2 mps 687 mmHg 84%
    23:00 +19°C° 0 mm 2 mps 687 mmHg 85%

    21 January, Sunday

    Time Temperature Precipitation Wind Pressure Humidity
    00:00 +19°C° 0 mm 2 mps 686 mmHg 87%
    01:00 +19°C° 0 mm 2 mps 686 mmHg 88%
    02:00 +18°C° 0 mm 2 mps 686 mmHg 88%
    03:00 +18°C° 0 mm 2 mps 685 mmHg 88%
    04:00 +18°C° 0 mm 2 mps 686 mmHg 89%
    05:00 +18°C° 0 mm 2 mps 686 mmHg 89%
    06:00 +18°C° 0 mm 2 mps 686 mmHg 90%
    07:00 +20°C° 0 mm 3 mps 687 mmHg 81%
    08:00 +22°C° 0 mm 3 mps 688 mmHg 72%
    09:00 +25°C° 0 mm 4 mps 688 mmHg 63%
    10:00 +26°C° 0 mm 4 mps 688 mmHg 59%
    11:00 +27°C° 0 mm 4 mps 687 mmHg 54%
    12:00 +28°C° 0 mm 4 mps 687 mmHg 50%
    13:00 +29°C° 0 mm 4 mps 686 mmHg 49%
    14:00 +29°C° 0 mm 4 mps 685 mmHg 49%
    15:00 +29°C° 0 mm 4 mps 685 mmHg 49%
    16:00 +27°C° 0 mm 3 mps 685 mmHg 56%
    17:00 +25°C° 0 mm 3 mps 685 mmHg 63%
    18:00 +24°C° 0 mm 2 mps 685 mmHg 70%
    19:00 +23°C° 0 mm 2 mps 685 mmHg 74%
    20:00 +21°C° 0 mm 2 mps 686 mmHg 79%
    21:00 +20°C° 0 mm 2 mps 686 mmHg 84%
    22:00 +20°C° 0 mm 2 mps 686 mmHg 86%
    23:00 +19°C° 0 mm 2 mps 685 mmHg 87%

    22 January, Monday

    Time Temperature Precipitation Wind Pressure Humidity
    00:00 +19°C° 0 mm 2 mps 685 mmHg 89%
    01:00 +18°C° 0 mm 2 mps 685 mmHg 90%
    02:00 +18°C° 0 mm 2 mps 685 mmHg 91%
    03:00 +18°C° 0 mm 2 mps 684 mmHg 91%
    04:00 +18°C° 0 mm 2 mps 685 mmHg 91%
    05:00 +18°C° 0 mm 2 mps 685 mmHg 91%
    06:00 +18°C° 0 mm 2 mps 685 mmHg 91%
    07:00 +20°C° 0 mm 2 mps 686 mmHg 81%
    08:00 +22°C° 0 mm 3 mps 687 mmHg 72%
    09:00 +25°C° 0 mm 3 mps 688 mmHg 62%
    10:00 +26°C° 0 mm 3 mps 688 mmHg 57%
    11:00 +28°C° 0 mm 3 mps 687 mmHg 53%
    12:00 +29°C° 0 mm 4 mps 687 mmHg 48%
    13:00 +29°C° 0 mm 4 mps 686 mmHg 48%
    14:00 +29°C° 0 mm 4 mps 686 mmHg 48%
    15:00 +30°C° 0 mm 4 mps 685 mmHg 47%
    16:00 +28°C° 0 mm 3 mps 685 mmHg 55%
    17:00 +26°C° 0 mm 3 mps 685 mmHg 63%
    18:00 +24°C° 0 mm 3 mps 685 mmHg 71%
    19:00 +23°C° 0 mm 2 mps 686 mmHg 75%
    20:00 +21°C° 0 mm 2 mps 686 mmHg 79%
    21:00 +20°C° 0 mm 2 mps 686 mmHg 83%
    22:00 +20°C° 0 mm 2 mps 686 mmHg 84%
    23:00 +20°C° 0 mm 2 mps 686 mmHg 84%
    Show more